Regional Weather Roundup
Issued by NWS

Home | Current Version | Previous Version | Graphics & Text | Print | Product List | Glossary On
Versions: 1 2 3 4 5 6 7 8 9 10 11 12 13 14 15 16 17 18 19 20 21 22 23 24 25 26 27 28 29 30 31 32 33 34 35 36 37 38 39 40 41 42 43 44 45 46 47 48 49 50
000
ASUS44 KMEG 170810
RWRTN
TENNESSEE HOURLY STATE WEATHER ROUNDUP
NATIONAL WEATHER SERVICE MEMPHIS TN
300 AM CDT THU APR 17 2014

TNZ002-004-019-021-049-052-054-088>092-170900-
WEST TENNESSEE

CITY           SKY/WX    TMP DP  RH WIND       PRES   REMARKS
MEMPHIS INTL   PTCLDY    48  33  56 S3        30.18S
NWS MEMPHIS      N/A     42 N/A N/A MISG        N/A
JACKSON        CLEAR     38  34  85 CALM      30.21R
DYERSBURG      CLEAR     46  28  49 CALM      30.21R
UNION CITY     CLEAR     39  34  81 CALM      30.18S
PARIS          CLEAR     42  29  60 S7        30.20S
LEXINGTON      CLEAR     39  34  81 CALM      30.21R
SAVANNAH       CLEAR     38  35  89 CALM      30.22
$$

TNZ008-025-027-028-033-062-065-066-170900-
NORTH MIDDLE TENNESSEE

CITY           SKY/WX    TMP DP  RH WIND       PRES   REMARKS
NASHVILLE      PTCLDY    49  33  54 S15       30.26R
DICKSON        PTCLDY    50  30  46 S10       30.22R
PORTLAND       MOCLDY    46  30  53 SE6       30.24R
CLARKSVILLE    CLEAR     41  32  70 S6        30.22R
SMYRNA         MOCLDY    41  35  79 SE5       30.28R
MURFREESBORO   PTCLDY    51  31  46 S9        30.26S
COOKEVILLE     CLEAR     46  28  49 S7        30.29R
LIVINGSTON     CLEAR     46  26  46 S8        30.28F
GALLATIN       PTCLDY    39  35  85 CALM      30.26S
CROSSVILLE     CLEAR     43  26  51 S3        30.31R
$$

TNZ061-075-076-078-094-096-097-170900-
SOUTH MIDDLE TENNESSEE

CITY           SKY/WX    TMP DP  RH WIND       PRES   REMARKS
LEWISBURG      PTCLDY    47  32  56 SE6       30.26S
FAYETTEVILLE   PTCLDY    44  30  58 SE9       30.29R
TULLAHOMA        N/A     48  27  43 SE10      30.29R
WINCHESTER     CLEAR     48  28  46 SE9       30.30S
MCMINNVILLE    CLEAR     48  28  46 S7        30.29R
COLUMBIA       CLEAR     50  37  62 SE8       30.23S
SHELBYVILLE    PTCLDY    50  30  46 S9        30.28S
$$

TNZ017-018-042-046-047-170900-
NORTHEAST TENNESSEE

CITY           SKY/WX    TMP DP  RH WIND       PRES   REMARKS
TRI CITIES     CLEAR     44  19  36 SE7       30.37R
ELIZABETHTON   SUNNY     41  19  42 E5G18     30.39R
$$

TNZ012-013-036-069-073-074-170900-
CENTRAL EAST TENNESSEE

CITY           SKY/WX    TMP DP  RH WIND       PRES   REMARKS
KNOXVILLE      CLEAR     37  34  89 NE3       30.33R
OAK RIDGE      CLEAR     39  32  76 CALM      30.34R
$$

TNZ083-085-099-170900-
SOUTHEAST TENNESSEE

CITY           SKY/WX    TMP DP  RH WIND       PRES   REMARKS
CHATTANOOGA    CLEAR     49  28  44 S5        30.34R
$$

SKY/WX REPORTED AS FAIR MEANS FEW OR NO CLOUDS BELOW
12 THOUSAND FEET.




USA.gov is the U.S. government's official web portal to all federal, state and local government web resources and services.